San Angelo Regional Mathis Field
KSJT : now visible

Airfield :











YOU CAN JOIN US ON...

 
LOGIN :

Register | Disclaimer

   EN    FR    IT 

 









Legend :    VFR   Marginal VFR   IFR   Intensive IFR   Very Intensive IFR
Visi :
Ceiling :
>= 8 km
>= 3000ft
5 to 8 km
1000 to 3000 ft
1500m to 5 km
500 to 1000 ft
800 to 1500m
200 to 500 ft
< 800m
< 200 ft
Symbols :   Thunderstorms  Fog  Heavy snow  Heavy precipitations  Wind > 20 kt






- Airport Elevation : 1919 ft
- IATA code : SJT


KSJT - San Angelo Regional Mathis Field

CURRENT METAR :
  • 010051Z 09005KT 10SM CLR 20/06 A3001 RMK AO2 SLP153 T02000061

EXPIRED METARs :
  • 312351Z 09005KT 10SM CLR 22/06 A3001 RMK AO2 SLP152 T02220061 10239 20194 56009

TAF KSJT
Valid from the 01 at 00:00 until the 02 at 00:00 UTC


312320Z 0100/0124 VRB04KT P6SM FEW250
FM010600 15006KT P6SM SCT250
FM011500 18013G20KT P6SM BKN250



MET'MAP, your aeronautical weather chart ! - Copyright ORBIFLY December 2007 - Disclaimer

ORBIFLY MET'MAP TEAM :

Programming & Development : Alexandra Zaïnal
Concept & original design : Baudouin d'Aumeries
Assistance for programming : Marc-Olivier Méhu
Technical & hardware support : Manuel Goepfert

Contact : metmap@orbifly.com




SOURCES & CREDITS :

   NOAA       Earth
Advisory